Regional Weather Roundup
Issued by NWS

Home | Current Version | Previous Version | Text Only | Print | Product List | Glossary Off
Versions: 1 2 3 4 5 6 7 8 9 10 11 12 13 14 15 16 17 18 19 20 21 22 23 24 25 26 27 28 29 30 31 32 33 34 35 36 37 38 39 40 41 42 43 44 45 46 47 48 49 50

000
ASUS43 KDMX 280403
RWRIA

WEATHER ROUNDUP FOR IOWA
NATIONAL WEATHER SERVICE DES MOINES IA
1100 PM CDT WED JUL 27 2016

NOTE: "FAIR" INDICATES FEW OR NO CLOUDS BELOW 12,000 FEET WITH NO
SIGNIFICANT WEATHER AND/OR OBSTRUCTIONS TO VISIBILITY.

* - THESE STATIONS ARE NOT NWS STATIONS...THUS NOT UNDER NWS
QUALITY CONTROL.  THEY ALSO DO NOT REPORT WEATHER SUCH
AS PRECIPITATION OR FOG.

IAZ001>003-012>014-020>022-031>034-043>046-280500-
   NORTHWEST IOWA

CITY           SKY/WX    TMP DP  RH WIND       PRES   REMARKS
CARROLL *      MOCLDY    72  70  94 N5        29.98S
CHEROKEE *     PTCLDY    71  67  85 N6        30.01R
DENISON *      CLEAR     72  70  94 CALM      29.98R
LE MARS *      CLOUDY    72  66  83 N8        30.02S
SHELDON *      PTCLDY    68  66  94 N6        30.02R
SIOUX CITY     CLOUDY    78  64  61 N8        30.00R HX  80
SPENCER        PTCLDY    70  64  81 N9        30.01S
STORM LAKE *   CLEAR     72  66  83 N7        30.01S
$$

IAZ055>058-069>071-079>083-090>094-280500-
   SOUTHWEST IOWA

CITY           SKY/WX    TMP DP  RH WIND       PRES   REMARKS
ATLANTIC *     PTCLDY    70  68  94 CALM      29.98S
CLARINDA *       N/A     72  72 100 MISG      30.00S
COUNCIL BLFS *   N/A     73  70  88 CALM      29.99S
CRESTON *      CLEAR     72  70  94 N6        30.00S
HARLAN  *      CLEAR     70  68  94 CALM      30.02R
LAMONI         PTCLDY    74  70  87 N3        29.97R
RED OAK *      PTCLDY    72  70  94 CALM      29.98F
SHENANDOAH *     N/A     73  72  94 CALM      29.98F
$$

IAZ047>049-059>061-072>074-084-280500-
   CENTRAL IOWA

CITY           SKY/WX    TMP DP  RH WIND       PRES   REMARKS
AMES           MOCLDY    71  71 100 CALM      29.96R
ANKENY *         N/A    N/A N/A N/A MISG        N/A
BOONE *          N/A     73  70  88 CALM      29.96S
CHARITON *       N/A    N/A N/A N/A MISG        N/A
DES MOINES     PTCLDY    78  69  73 S3        29.95S HX  80
GRINNELL*      CLEAR     69  66  89 S3        29.96F
KNOXVILLE *    CLEAR     75  70  83 CALM      29.95S
MARSHALLTOWN   PTCLDY    69  67  93 CALM      29.96R
NEWTON *       CLEAR     70  70 100 CALM      29.95S
PELLA *        CLEAR     71  69  92 CALM      29.97R
PERRY *          N/A     72  71  98 W5        29.96F
$$

IAZ004>006-015-016-023>025-035-036-280500-
   NORTH CENTRAL IOWA

CITY           SKY/WX    TMP DP  RH WIND       PRES   REMARKS
ALGONA *       PTCLDY    70  66  88 N6        30.00S
ESTHERVILLE    CLEAR     66  65  96 N6        30.01R
FORT DODGE *   PTCLDY    72  68  88 N5        29.99S
MASON CITY     CLEAR     68  66  93 W7        29.99R
FOREST CITY *    N/A     70  68  94 NW8       29.99R
IOWA FALLS *   MOCLDY    72  69  89 W6        29.99R
$$

IAZ007>011-017>019-026>030-037>042-050>054-066-280500-
   NORTHEAST IOWA

CITY           SKY/WX    TMP DP  RH WIND       PRES   REMARKS
CEDAR RAPIDS   CLEAR     69  69 100 CALM      29.94R
CHARLES CITY * PTCLDY    70  70 100 SW3       29.97R
CLINTON *      PTCLDY    73  70  90 CALM      29.94S
DECORAH *      MOCLDY    72  68  88 CALM      29.95R
DUBUQUE        PTCLDY    71  67  87 CALM      29.96R
MONTICELLO *   CLEAR     70  70 100 CALM      29.94S FOG
OELWEIN *      CLOUDY    68  66  94 SW6       29.96F
WATERLOO       CLOUDY    68  66  93 E5        29.94R
$$

IAZ064-065-067-068-078-280500-
   EAST CENTRAL IOWA

CITY           SKY/WX    TMP DP  RH WIND       PRES   REMARKS
DAVENPORT      PTCLDY    73  69  87 SE3       29.94S
IOWA CITY      CLEAR     73  69  87 W3        29.95S
MT. PLEASANT * MOCLDY    76  75  96 CALM      29.94S
MUSCATINE *    MOCLDY    73  70  88 W3        29.93S
QUAD CITIES    PTCLDY    76  69  79 CALM      29.92S
$$

IAZ062-063-075>077-085>089-095>099-280500-
   SOUTHEAST IOWA

CITY           SKY/WX    TMP DP  RH WIND       PRES   REMARKS
BURLINGTON     CLEAR     75  73  93 CALM      29.93S
FAIRFIELD *    PTCLDY    72  68  88 N8        29.95R
KEOKUK *       CLEAR     77  72  83 CALM      29.92S
CENTERVILLE *    N/A     68  68 100 CALM      29.97S
OTTUMWA        CLEAR     74  69  85 N6        29.94R
WASHINGTON *   PTCLDY    72  70  94 N6        29.95S
$$

ABBREVIATIONS USED IN REMARKS
   TC - TEMPERATURES IN CELSIUS
  WCI - WIND CHILL INDEX
   HX - HEAT INDEX
  VSB - VISIBILITY
$$




USA.gov is the U.S. government's official web portal to all federal, state and local government web resources and services.